Weather in Silikatny

Russia / Mari El Republic     56°22′45″N   48°12′09″E
temp.,
°C
wind,
m/s
gust,
m/s
humid.,
%
clouds,
%
prec.,
mm/h
press.,
hPa
HPBL,
m
28 february, sun
sun2800:00−18n389698 0.0 1007243
03:00−19n499585 0.0 1009250
06:00−21n379762 0.0 1010194
09:00−18n379559 0.0 1010261
12:00−14n479382 0.0 1011378
15:00−13n489185 0.0 1012465
18:00−17n259691 0.0 1014115
21:00−19n239866 0.0 101732
1 march, mon
mon100:00−21nnw23980 0.0 101825
03:00−22nnw23980 0.0 102020
06:00−22nnw22984 0.0 102120
09:00−17nw12942 0.0 1022144
12:00−12w239085 0.0 1021386
15:00−10sw249392 0.1 1020450
18:00−12ssw3797100 0.1 1017254
21:00−12ssw3797100 0.1 1014254
2 march, tue
tue200:00−9ssw51095100 0.3 1010416
03:00−6ssw51295100 1.8 1005618
06:00−3ssw51196100 1.6 1001616
09:00−1sw4898100 3.3 998495
12:000w37100100 1.3 996507
15:000w37100100 1.8 996510
18:00−1nw51195100 0.9 996692
21:00−5nw389598 1.0 998148
3 march, wed
wed300:00−6nw249795 0.0 99990
03:00−4nw279797 0.2 1000225
06:00−8nw379684 0.1 1001156
09:00−5nw379690 0.1 1002355
12:00−3nnw4893100 0.2 1004734
15:00−3nnw5991100 0.6 1005885
18:00−5nw3108998 0.1 1007609
21:00−7nw4119293 0.1 1009462
4 march, thu
thu400:00−11wnw389744 0.0 1010167
03:00−13w369853 0.0 1010123
06:00−12wsw379894 0.1 1009186
09:00−9sw489697 0.1 1007299
12:00−4sw61292100 0.0 1004704
15:00−2sw71394100 0.9 1001885
18:00−1wsw61496100 1.1 9981032
21:000wsw81597100 1.8 9961238